Regional Weather Roundup
Issued by NWS State College, PA

Home | Current Version | Previous Version | Graphics & Text | Print | Product List | Glossary On
Versions: 1 2 3 4 5 6 7 8 9 10 11 12 13 14 15 16 17 18 19 20 21 22 23 24 25 26 27 28 29 30 31 32 33 34 35 36 37 38 39 40 41 42 43 44 45 46 47 48 49 50
000
ASUS41 KCTP 302310
RWRCTP

REGIONAL WEATHER ROUNDUP
NATIONAL WEATHER SERVICE STATE COLLEGE PA
700 PM EDT TUE JUN 30 2015

Note: "fair" indicates few or no clouds below 12,000 feet with no
significant weather and/or obstructions to visibility.

* = STATION THAT DOES NOT REPORT PRECIPITATION /E.G. RAIN...SNOW...ETC/
    THUNDER OR FOG.

PAZ002>004-007>009-013>016-020>023-029>032-010000-
WESTERN PENNSYLVANIA

CITY           SKY/WX    TMP DP  RH WIND       PRES   REMARKS
ERIE           PTSUNNY   67  59  75 MISG      29.77S
MEADVILLE      LGT RAIN  63  61  93 SW5       29.80S FOG
FRANKLIN*      CLOUDY    64  61  88 SW6       29.81F
NEW CASTLE     MOCLDY    66  65  97 CALM      29.80F
BEAVER COUNTY  PTSUNNY   63  61  94 CALM      29.81S
BUTLER*        CLOUDY    63  59  88 SW3       29.83F
PITTSBURGH INT CLOUDY    64  61  90 S5        29.81F
PITTSBURGH     LGT RAIN  62  57  83 W12       29.82R
INDIANA*       PTSUNNY   68  66  94 E3        29.85S
LATROBE        NOT AVBL
WASHINGTON CO* NOT AVBL
$$

PAZ004>006-010>012-017>019-024>028-033>037-041-042-045-046-049>053-010000-
CENTRAL PENNSYLVANIA

CITY           SKY/WX    TMP DP  RH WIND       PRES   REMARKS
BRADFORD       MOSUNNY   70  59  68 SW7       29.81F
DUBOIS         PTSUNNY   68  62  81 SE3       29.81F
CLEARFIELD     LGT RAIN  65  62  90 N3        29.82F
JOHNSTOWN      MOSUNNY   71  59  65 SW9       29.85S
ALTOONA        MOSUNNY   75  61  61 W9        29.83R
STATE COLLEGE  PTSUNNY   66  61  82 S6        29.81S
WILLIAMSPORT   CLOUDY    76  67  73 SE5       29.77S
SELINSGROVE    PTSUNNY   74  70  87 NW3       29.79S
FT INDIANTOWN  PTSUNNY   76  67  75 SE2       29.80R
CAPITAL CITY   PTSUNNY   79  66  64 SE10      29.79R
HARRISBURG     PTSUNNY   75  68  78 SE7       29.79R
YORK           PTSUNNY   80  68  66 CALM      29.80R
$$

PAZ038>040-043-044-047-048-054-055-060>062-067>071-010000-
EASTERN PENNSYLVANIA

CITY           SKY/WX    TMP DP  RH WIND       PRES   REMARKS
SCRANTON       PTSUNNY   72  63  73 E6        29.83S
MOUNT POCONO   LGT RAIN  63  60  90 E13       29.90F FOG
ALLENTOWN      CLOUDY    77  66  68 S3        29.83R
QUAKERTOWN*    MOCLDY    75  64  69 S7        29.84S
READING        HVY RAIN  75  68  78 S8        29.81R
LANCASTER      PTSUNNY   75  69  81 CALM      29.80F
COATESVILLE    PTCLDY    73  72  94 SE6       29.84F
POTTSTOWN      PTSUNNY   75  65  70 VRB3      29.84S
BLUE BELL      MOSUNNY   77  68  73 SE12      29.83S
DOYLESTOWN     MOSUNNY   74  65  73 S7        29.83F
WILLOW GROVE   NOT AVBL
NORTH PHILA    PTSUNNY   76  67  73 VRB6      29.85S
PHILADELPHIA   PTSUNNY   76  69  79 E12       29.84S
$$



USA.gov is the U.S. government's official web portal to all federal, state and local government web resources and services.